Location: Unspecified
(0.0000°N, 0.0000°E)
Time: 08:58:54
(UTC+00:00)

deb Midas III - Pass Details

Date: 19 March 2026
Orbit: 3314 x 3545 km, 91.1° (Epoch: 19 April)

Event Time Altitude Azimuth Distance (km) Brightness Sun altitude
Rises 01:02:19 0° 169° (SSE) 7,609 ? -76.4°
Reaches altitude 10° 01:06:39 10° 166° (SSE) 6,570 ? -75.3°
Enters shadow 01:10:32 21° 163° (SSE) 5,670 ? -74.3°
Exits shadow 01:39:50 18° 3° (N) 5,749 ? -67.0°
Drops below altitude 10° 01:42:33 10° 1° (N) 6,396 ? -66.3°
Sets 01:46:39 0° 360° (N) 7,401 ? -65.3°
